Location: Madden
(51.3728°N, 114.3297°W)
Time: 05:02:58
(UTC+00:00)

PCSat - Pass Details

Date: 13 December 2023
Orbit: 784 x 791 km, 67.0° (Epoch: 02 March)

Event Time Altitude Azimuth Distance (km) Brightness Sun altitude
Exits shadow 11:46:31 18° 20° (NNE) 1,885 11.7 -34.1°
Drops below altitude 10° 11:47:58 10° 29° (NNE) 2,363 12.4 -33.9°
Sets 11:50:35 0° 38° (NE) 3,296 13.3 -33.5°
